Wind_Speed
46 43 40 38 38 39 39 38 38 37 34 33 31 30 29 28 27 27 27 27 26 26 26 26 27 29 30 31 32 33 35 36 38 40 42 46 51 51 50 51 48 43 43 42 43 45 44 43 43 40 37 35 33 32 31 31 33 34 35 38 43 47 49
45 42 39 37 37 38 38 39 38 37 36 35 34 32 30 28 28 27 27 27 27 26 26 25 26 27 28 29 30 31 33 35 37 39 40 41 47 52 52 52 50 46 43 42 42 44 46 44 43 42 40 38 37 35 32 31 32 34 36 38 41 44 49
44 41 39 37 36 36 37 37 37 37 37 37 35 34 32 30 29 28 27 27 27 27 26 25 25 25 25 26 27 28 30 32 35 38 40 40 42 46 50 51 52 49 45 44 43 44 45 44 43 42 41 40 40 38 35 33 32 33 36 40 42 43 46
43 43 41 40 39 39 38 37 36 37 37 37 36 35 35 33 31 30 28 28 28 28 27 26 25 24 24 25 25 26 27 29 31 34 36 39 41 43 45 48 50 49 46 46 46 45 45 45 45 44 43 41 40 40 38 35 34 35 37 41 44 45 45
45 46 46 45 45 45 43 41 39 39 39 38 37 37 37 36 35 33 31 29 29 29 29 28 26 25 25 25 25 25 26 27 29 31 32 34 37 41 44 46 49 49 47 46 46 47 47 46 47 46 46 44 42 41 40 39 39 40 41 42 45 46 45
47 47 49 49 49 49 48 47 46 45 44 42 41 41 40 39 38 36 34 32 31 30 30 30 29 28 27 26 27 27 27 28 29 30 31 32 33 36 41 45 47 50 49 48 47 48 48 48 47 47 48 48 47 45 43 43 44 44 43 44 45 46 46
50 49 50 50 50 50 50 51 50 47 44 42 42 43 43 42 40 39 38 36 34 32 32 32 31 31 30 30 30 30 29 29 30 30 30 31 32 33 36 40 44 47 50 50 49 48 49 49 48 48 48 49 49 48 47 46 45 44 44 45 46 46 46
52 51 53 54 52 50 49 48 47 44 42 41 42 42 43 43 42 41 41 40 38 36 34 34 34 34 34 33 33 33 33 32 32 32 31 31 32 33 34 37 40 44 47 50 51 51 51 50 49 48 48 48 48 48 47 46 45 45 45 46 47 47 46
51 51 52 53 53 51 48 46 44 43 42 43 42 42 42 43 44 44 44 43 42 41 39 37 37 37 37 36 36 36 36 35 34 33 33 33 33 33 34 35 37 40 43 47 50 53 54 54 51 50 50 50 49 48 47 47 46 46 46 46 48 48 47
50 49 49 51 52 50 47 47 47 47 47 47 45 44 43 42 44 45 46 46 46 45 44 42 41 40 40 39 39 39 38 38 37 36 36 35 35 34 34 35 36 37 40 42 45 49 53 56 56 54 52 52 50 49 48 47 47 47 47 47 49 50 49
50 49 48 48 49 49 48 48 50 51 53 53 51 48 46 43 43 44 46 46 47 47 47 46 46 44 43 43 42 42 42 41 40 40 39 38 37 36 36 36 37 37 38 39 41 43 47 52 55 56 55 55 53 51 49 48 48 49 48 48 50 52 52
52 52 52 51 50 50 49 49 51 54 57 58 57 54 52 48 45 44 45 46 47 48 49 49 49 48 48 47 46 45 45 44 43 43 42 41 40 39 38 37 38 38 39 40 40 41 43 45 49 53 55 56 56 54 53 51 50 50 51 50 51 53 55
51 53 57 59 58 56 53 53 55 59 60 59 59 58 56 54 50 47 46 47 47 48 49 51 51 51 51 50 50 49 49 48 47 46 45 44 43 41 40 39 39 40 40 41 41 42 42 43 45 47 51 55 57 57 57 56 55 54 54 54 53 53 56
56 57 59 62 62 63 64 65 65 65 62 59 58 58 58 58 56 53 51 51 51 50 51 51 52 53 53 53 53 53 52 52 51 50 48 47 46 45 43 43 42 42 42 42 43 43 43 44 44 45 47 50 54 58 60 60 58 56 56 56 56 56 56
63 64 65 65 65 66 70 72 70 67 63 61 57 55 57 59 59 57 56 56 55 54 53 53 54 54 54 54 55 55 55 54 54 53 51 50 49 48 47 46 46 45 45 45 44 44 44 44 45 45 46 47 50 53 58 60 60 58 57 57 59 59 59
65 66 67 67 67 68 71 72 69 65 61 58 54 49 50 54 57 57 57 58 58 58 57 57 57 57 56 56 56 56 56 56 56 55 54 53 52 52 51 50 50 49 48 48 48 47 47 46 46 46 47 48 48 50 53 56 59 59 59 58 58 60 61
65 65 66 65 64 65 66 65 62 58 56 54 52 50 50 53 56 56 56 57 59 59 59 59 60 61 61 60 59 59 58 58 57 57 56 55 55 54 54 54 53 53 52 52 51 51 50 50 49 49 48 49 50 50 51 53 55 57 59 59 59 60 61
66 65 65 64 61 58 58 57 55 54 53 54 56 56 56 56 58 58 56 55 57 58 58 60 62 63 64 64 63 62 61 60 59 58 57 57 57 56 56 56 56 56 55 55 54 54 54 54 54 53 53 52 52 52 53 53 54 56 57 59 60 60 61
66 65 64 63 59 54 52 50 50 53 54 53 56 59 60 60 60 58 57 56 57 58 58 60 61 62 63 63 63 63 62 61 60 59 59 58 58 58 58 58 59 58 58 58 58 57 57 57 56 57 57 57 56 55 55 55 56 57 58 59 59 60 62
62 61 61 61 58 55 53 49 47 50 51 50 54 57 59 61 58 56 57 57 57 58 59 61 61 62 62 62 62 63 63 62 61 60 59 59 60 60 60 60 61 61 61 61 61 61 60 60 59 60 60 60 60 60 59 59 58 58 59 60 61 61 62
59 59 58 59 56 53 53 51 48 49 50 51 53 53 57 60 58 55 57 56 55 56 58 60 62 62 63 63 62 62 62 62 62 61 60 59 59 60 61 62 63 63 64 64 64 64 63 62 63 64 63 63 62 63 63 63 62 62 62 62 62 63 64
56 56 55 56 56 53 51 51 52 53 53 54 54 52 55 59 58 56 55 52 49 50 52 55 58 60 63 65 66 65 63 63 63 62 61 60 61 62 63 64 65 66 67 66 66 65 65 65 66 67 67 67 66 66 66 65 65 65 65 65 65 65 65
54 55 52 52 56 56 53 53 56 58 59 59 58 55 53 53 53 54 54 51 49 49 50 52 54 56 59 62 64 66 66 65 64 64 64 63 63 64 65 67 68 68 69 69 68 68 68 68 68 68 69 69 70 70 69 69 68 68 68 69 69 69 69
55 56 54 51 53 54 55 57 57 58 60 62 62 58 56 55 54 54 55 55 55 53 53 55 56 57 58 59 61 63 64 65 64 64 65 65 64 65 67 69 70 70 71 71 71 71 71 72 72 71 71 72 73 73 73 72 72 71 71 72 72 72 72
56 56 54 53 54 54 56 58 59 59 59 61 62 62 61 61 60 59 59 59 59 57 56 57 58 59 60 61 61 61 62 63 63 63 64 64 64 66 68 70 70 72 74 73 73 73 74 74 75 75 75 75 76 76 76 76 75 75 75 75 76 76 76
58 57 56 55 56 56 57 59 61 62 62 62 63 63 62 62 62 62 61 61 60 60 60 60 60 61 62 63 63 63 63 64 63 63 62 62 64 66 68 68 68 70 72 72 72 73 74 75 76 77 76 76 77 78 79 79 78 77 77 78 78 79 79
58 58 57 57 57 57 58 60 61 62 62 62 62 62 62 62 62 63 63 63 63 63 63 63 63 63 63 65 65 65 65 65 65 65 64 63 65 67 69 69 68 68 69 69 69 71 72 73 76 77 76 76 76 77 79 80 80 79 79 79 80 81 82
58 59 59 59 59 59 59 60 61 61 62 62 62 62 63 63 64 64 65 66 66 66 66 66 66 66 66 67 67 67 68 68 68 68 67 67 68 70 72 72 70 70 70 68 68 69 71 73 75 76 76 76 76 76 77 78 79 79 79 80 81 82 84
59 60 61 61 61 61 61 61 61 61 61 62 63 64 64 65 66 67 68 69 69 69 69 69 69 69 70 70 70 70 71 71 71 71 71 71 72 73 74 74 73 73 72 70 69 70 71 73 75 75 75 76 77 77 77 77 78 79 79 80 80 82 84
61 62 62 63 63 62 62 62 61 62 63 64 65 65 65 66 67 68 69 70 71 71 72 72 71 71 72 73 73 73 73 74 74 74 74 75 75 76 76 77 77 76 76 74 73 73 74 75 75 74 75 76 78 79 80 81 81 82 82 82 83 84 84
62 63 63 64 64 64 64 64 65 66 66 67 67 67 68 69 69 70 70 70 71 72 73 73 73 73 73 74 75 75 75 76 76 77 77 77 78 78 78 78 79 79 79 78 78 78 78 78 77 76 76 77 78 80 82 84 85 86 87 87 87 87 87
64 65 65 65 66 66 68 69 69 69 69 69 69 69 70 70 71 71 71 72 72 72 73 73 73 73 74 75 75 76 76 77 77 77 78 78 79 79 80 80 80 81 81 81 82 81 81 81 80 80 80 80 80 82 83 84 86 87 87 88 87 87 88
66 67 68 69 69 70 71 72 72 72 72 71 71 71 72 72 72 72 73 73 73 73 73 73 73 73 74 75 75 76 76 77 77 78 78 79 79 80 81 81 81 81 82 83 83 83 83 83 83 83 83 84 85 86 86 86 87 87 87 87 86 86 86
68 70 71 72 73 73 74 75 75 75 74 74 73 73 73 73 73 73 74 74 74 74 73 73 72 73 73 73 74 75 76 76 77 77 78 78 79 80 81 81 82 82 83 83 84 83 83 84 84 84 85 86 87 88 88 89 90 90 89 88 88 88 87
71 72 74 75 76 76 77 77 78 78 77 76 75 74 74 75 75 75 74 74 74 74 73 72 72 72 72 72 73 73 74 75 76 76 76 77 78 79 80 81 82 82 83 83 83 83 84 85 85 86 86 86 87 87 88 89 90 90 89 89 89 89 89
74 75 76 77 77 78 79 79 79 79 79 78 77 77 77 77 76 75 74 73 73 72 71 71 71 71 71 71 71 72 73 73 74 74 75 75 76 77 78 79 80 81 82 82 83 84 85 86 86 86 86 86 86 86 87 86 86 86 87 87 87 88 88
76 76 77 78 80 81 80 79 79 79 79 79 80 80 80 78 77 75 74 73 71 70 69 69 69 69 69 70 70 71 71 71 71 71 72 73 74 75 76 77 78 80 81 81 82 83 84 85 85 85 85 85 85 85 85 84 83 83 83 83 83 84 85
Wind_Direction
288 287 286 285 287 287 287 288 287 285 285 286 286 287 288 288 286 282 278 274 270 266 262 259 257 256 255 254 251 249 246 245 244 243 244 242 237 235 236 236 239 242 242 242 242 239 239 239 238 237 236 233 232 235 237 239 241 240 238 235 231 229 228
284 283 281 281 283 284 285 285 283 281 282 283 283 283 283 285 285 282 279 275 270 267 263 259 257 256 255 254 252 250 248 246 245 243 243 242 239 237 238 237 238 240 240 239 240 240 241 241 240 238 237 236 235 236 238 242 245 244 241 239 236 235 233
280 279 278 279 281 281 281 281 280 279 280 279 279 280 280 281 281 280 278 274 270 266 263 259 256 254 254 254 253 252 250 248 248 246 244 244 241 239 239 239 238 239 239 238 238 239 240 240 239 238 238 239 239 241 242 243 244 246 244 241 239 237 236
281 281 280 279 281 282 280 279 279 280 279 277 275 277 278 278 278 278 276 273 269 265 261 258 255 253 252 252 252 252 251 250 249 249 247 246 245 242 239 238 238 238 238 237 236 237 238 238 238 238 237 239 241 243 244 243 244 248 248 245 242 240 239
281 279 278 279 280 281 281 280 280 281 281 277 275 276 275 275 275 275 274 272 268 265 261 258 255 253 252 253 253 253 253 253 252 251 249 248 246 244 241 239 239 238 237 236 235 235 237 239 240 239 238 239 241 242 242 245 250 252 250 247 245 242 241
278 276 275 276 277 278 279 279 280 282 282 279 277 276 274 272 272 272 272 271 268 265 262 259 257 256 258 260 260 259 256 255 254 253 252 250 247 244 242 241 240 239 237 236 235 234 236 239 241 240 239 239 241 243 245 249 253 253 251 249 247 245 243
278 277 276 276 277 278 278 278 280 281 281 280 279 276 272 270 270 269 270 270 268 266 263 260 259 259 262 264 266 266 264 261 258 256 254 252 249 245 243 242 241 241 240 239 237 235 235 239 242 241 239 239 241 243 246 250 252 251 250 249 246 244 245
279 278 277 276 276 277 278 278 278 278 279 282 282 278 272 268 266 267 268 268 267 266 264 261 259 258 259 262 264 266 266 265 263 260 257 255 252 248 245 242 241 241 241 241 240 238 236 238 242 242 240 239 240 242 245 248 250 250 249 248 246 243 243
280 279 276 274 272 272 274 274 274 274 277 282 282 278 274 268 265 266 266 266 265 265 264 262 260 257 256 258 260 261 263 264 264 263 261 258 255 252 249 246 243 242 241 241 242 241 240 239 241 243 242 241 240 241 244 246 248 249 248 248 246 242 240
278 277 275 273 269 269 271 272 272 271 273 277 277 276 274 271 268 267 266 265 264 264 264 263 261 259 257 256 257 258 260 260 261 261 261 261 259 256 254 251 248 246 244 242 242 242 242 241 242 243 244 243 241 241 243 245 246 247 247 247 245 242 240
274 273 273 273 270 271 273 274 275 274 273 274 274 272 271 270 271 270 267 266 264 264 264 263 262 261 260 258 257 257 258 258 258 257 257 258 260 259 258 256 254 251 248 246 245 244 243 243 243 244 244 244 243 241 241 243 245 246 246 246 245 243 241
268 269 271 271 270 271 273 275 277 278 277 275 273 271 268 267 270 271 268 267 266 264 263 263 262 262 261 260 258 257 257 257 257 256 255 255 256 257 258 259 258 256 254 252 250 249 247 245 244 244 244 243 244 242 241 242 244 245 245 245 244 243 242
262 267 270 271 271 271 271 275 280 281 279 277 274 271 267 264 267 269 268 266 266 266 264 263 261 261 260 259 259 258 257 256 256 255 255 254 254 254 255 256 257 257 257 256 255 254 252 250 248 247 245 244 244 243 242 243 244 244 243 243 243 243 242
259 265 268 270 271 271 271 276 282 283 280 277 275 272 266 262 263 266 264 263 264 265 265 263 260 259 259 258 257 256 255 255 254 254 254 254 253 252 252 253 253 254 255 256 257 257 256 255 253 251 250 248 246 244 244 244 244 243 242 241 241 242 242
260 264 266 267 269 270 272 277 281 281 278 275 274 270 265 260 260 263 264 262 262 262 263 262 260 258 258 258 257 256 255 254 254 253 253 253 252 252 251 251 251 252 253 255 256 257 257 257 256 255 253 251 250 248 246 246 246 244 243 241 241 241 241
262 263 265 268 271 273 274 276 278 277 274 272 270 267 265 262 261 262 264 262 260 259 259 260 259 257 258 258 258 257 255 255 254 253 253 252 252 252 251 251 251 251 252 253 254 256 257 257 257 256 255 254 253 251 249 247 246 245 244 243 242 241 241
263 264 266 269 272 274 275 275 274 272 269 266 264 265 266 264 263 264 265 262 259 257 257 257 257 257 258 259 260 258 256 255 254 254 254 253 252 252 252 251 251 251 251 252 252 254 255 257 257 257 257 255 254 253 252 250 248 247 246 245 244 243 242
262 264 266 267 269 270 270 269 268 267 265 262 262 265 265 264 264 266 266 262 258 257 257 257 257 257 258 259 260 258 257 256 255 254 254 254 254 254 254 253 253 252 252 253 253 253 253 255 255 256 256 256 255 254 253 252 251 249 248 247 246 246 245
261 262 262 262 263 264 263 264 264 263 263 263 265 266 267 266 264 263 262 260 257 257 258 257 257 257 258 259 259 258 257 257 255 254 254 255 255 255 255 256 255 254 253 253 253 253 253 253 254 254 255 255 255 255 254 253 252 251 250 249 249 248 248
259 258 258 259 260 260 258 257 259 261 262 264 267 267 266 265 262 261 262 263 260 258 257 256 256 256 257 257 258 258 257 257 256 255 256 257 257 257 256 256 256 256 255 254 253 253 253 253 253 253 254 254 254 254 254 254 253 253 252 251 250 250 249
257 256 256 256 256 255 253 250 254 259 259 260 263 264 265 266 265 265 266 267 267 264 259 256 255 255 256 256 256 257 257 257 257 257 257 259 260 260 258 257 257 256 256 255 254 254 254 254 254 254 253 253 253 253 253 254 254 254 253 252 252 251 250
256 255 254 253 251 248 247 246 249 254 254 255 258 260 263 266 268 270 269 268 271 271 266 262 260 258 257 256 255 256 257 257 257 257 257 259 261 260 258 257 257 257 256 256 256 255 255 255 255 255 254 253 253 252 252 253 253 254 254 254 254 253 252
255 254 254 255 252 248 247 248 251 253 255 257 259 260 262 264 268 271 271 270 272 272 269 268 266 263 260 258 257 256 256 257 256 255 255 257 259 259 258 256 256 256 256 256 256 256 256 256 256 256 255 254 254 254 253 252 252 253 253 254 254 254 254
256 256 257 255 252 253 255 255 253 253 256 258 259 259 259 260 263 265 266 268 270 269 267 267 267 266 264 262 260 258 258 257 256 254 253 254 255 256 256 256 256 257 256 255 255 256 256 256 256 256 256 256 256 255 255 254 253 253 253 253 254 254 254
255 255 255 251 250 254 257 255 253 252 253 255 258 259 259 259 260 261 261 263 266 265 264 264 265 265 265 265 264 263 261 261 259 257 256 255 254 253 252 254 255 256 256 255 254 255 255 256 256 256 257 257 257 257 257 256 255 254 253 253 253 253 253
256 255 253 251 250 251 252 251 252 252 252 254 257 260 260 260 261 261 261 261 262 262 262 262 262 263 265 265 266 265 265 264 263 262 261 260 259 257 255 254 253 255 256 255 255 255 255 255 255 256 256 256 257 258 257 257 256 255 255 254 253 253 253
255 255 254 253 253 252 251 251 253 254 255 256 258 259 261 262 262 263 263 262 261 261 261 260 261 261 262 263 264 265 265 266 266 265 265 264 264 264 262 259 256 255 254 254 253 254 254 255 255 255 255 256 257 257 257 256 255 255 255 255 254 253 253
251 253 254 255 255 255 254 254 255 256 257 258 259 260 261 262 263 264 264 264 263 262 262 261 261 260 260 260 261 262 263 264 264 265 265 265 264 264 264 263 261 260 257 255 253 253 253 254 254 255 256 256 256 256 256 255 255 255 255 255 255 255 255
249 250 252 254 256 257 257 257 258 259 259 260 261 262 263 264 265 265 266 266 266 265 264 263 263 262 261 260 260 260 261 261 262 262 263 263 263 264 264 265 264 264 262 260 258 256 256 255 255 255 256 256 256 256 256 255 255 255 255 256 257 257 256
252 253 254 255 257 257 258 258 258 259 260 261 262 263 264 265 266 266 267 267 268 268 267 266 265 264 263 263 261 260 260 260 260 260 260 260 261 262 263 265 265 265 265 264 263 261 260 259 258 257 257 257 257 257 257 256 256 256 256 258 258 258 257
259 259 260 260 260 259 259 258 258 259 260 261 263 264 265 265 265 266 267 267 268 269 269 268 267 265 264 264 263 262 261 260 260 260 260 260 260 260 261 262 264 265 265 265 264 264 264 263 263 262 260 259 259 259 258 258 258 257 258 258 259 258 257
262 262 263 263 262 262 262 262 262 262 262 263 264 265 266 267 267 268 268 269 269 269 269 268 268 267 265 264 263 263 262 261 261 261 261 260 260 261 261 261 261 262 263 263 263 263 263 263 263 263 263 263 262 261 261 260 260 260 260 259 259 258 257
263 263 264 264 264 264 264 265 265 265 266 266 266 267 267 268 269 270 270 271 270 270 269 268 268 267 266 265 264 264 263 262 261 260 260 261 261 261 261 261 261 261 262 262 262 263 263 262 262 262 262 262 262 262 263 263 262 262 262 262 261 260 259
264 265 266 266 266 267 267 267 267 267 267 267 268 268 269 269 270 271 271 272 272 271 271 270 269 268 267 266 266 265 264 263 262 261 261 261 261 261 261 262 262 262 262 262 263 263 263 263 263 262 262 261 261 261 262 262 263 263 263 264 264 263 262
264 264 265 266 267 268 268 269 269 269 269 269 270 270 271 271 271 271 271 271 272 272 272 272 271 270 269 268 266 265 264 263 262 262 261 261 261 261 261 262 262 263 263 264 264 264 264 264 264 263 263 262 262 262 261 261 262 263 263 263 264 264 264
262 263 264 265 265 266 267 267 269 270 271 272 273 272 272 272 272 272 272 272 272 272 272 272 272 271 270 269 268 266 265 264 263 262 262 261 261 261 262 262 262 263 263 264 264 264 264 264 264 264 265 265 265 264 264 263 263 264 264 264 264 264 264
260 261 262 263 263 264 264 266 267 269 271 273 274 274 274 273 273 273 273 273 272 272 272 272 272 271 271 270 269 268 267 266 265 264 263 263 262 262 262 263 263 263 263 264 264 264 265 265 266 266 266 266 266 266 266 266 266 266 266 266 266 266 266
Height
10607 10608 10608 10608 10607 10607 10608 10609 10608 10608 10608 10607 10606 10605 10604 10604 10603 10602 10602 10602 10602 10602 10602 10602 10602 10602 10601 10602 10602 10603 10604 10604 10605 10606 10608 10609 10611 10614 10616 10617 10619 10620 10620 10622 10626 10629 10632 10634 10636 10638 10639 10640 10641 10643 10645 10647 10649 10651 10653 10654 10656 10657 10658
10604 10604 10605 10605 10604 10604 10604 10605 10605 10605 10605 10604 10603 10602 10602 10601 10600 10599 10598 10598 10598 10598 10598 10598 10598 10598 10598 10599 10600 10600 10601 10601 10602 10603 10604 10605 10606 10608 10611 10613 10615 10616 10617 10619 10621 10624 10627 10630 10632 10634 10635 10636 10638 10639 10641 10644 10645 10648 10649 10650 10651 10652 10654
10600 10599 10600 10600 10600 10600 10600 10601 10601 10602 10602 10601 10600 10599 10598 10598 10597 10596 10595 10595 10594 10595 10595 10595 10595 10595 10596 10596 10597 10597 10598 10598 10598 10599 10600 10601 10602 10604 10606 10608 10610 10612 10613 10615 10617 10619 10622 10625 10627 10629 10631 10632 10634 10635 10638 10640 10642 10644 10645 10645 10646 10647 10648
10594 10594 10594 10594 10594 10594 10595 10596 10597 10597 10598 10598 10597 10596 10595 10595 10594 10593 10592 10592 10591 10591 10591 10592 10592 10592 10593 10593 10594 10595 10595 10595 10595 10596 10596 10597 10599 10600 10601 10603 10605 10607 10609 10611 10612 10615 10618 10620 10622 10624 10626 10628 10630 10631 10633 10636 10637 10639 10639 10640 10640 10641 10643
10587 10587 10587 10588 10588 10588 10589 10590 10591 10592 10593 10593 10593 10592 10592 10591 10591 10590 10589 10589 10589 10588 10588 10589 10589 10589 10590 10590 10591 10591 10592 10592 10592 10592 10593 10594 10595 10596 10597 10599 10600 10602 10605 10606 10608 10610 10613 10615 10617 10619 10621 10623 10625 10627 10629 10631 10632 10633 10633 10634 10635 10636 10638
10580 10581 10581 10583 10583 10583 10582 10583 10585 10586 10587 10587 10587 10587 10587 10587 10587 10586 10586 10586 10585 10585 10585 10585 10586 10586 10587 10587 10587 10588 10588 10588 10588 10589 10589 10590 10591 10592 10593 10594 10596 10598 10600 10602 10604 10606 10608 10610 10612 10614 10616 10618 10620 10622 10624 10626 10626 10626 10627 10629 10630 10631 10633
10573 10575 10575 10577 10579 10578 10577 10577 10578 10580 10580 10581 10581 10581 10581 10582 10582 10582 10582 10582 10582 10582 10582 10582 10583 10583 10583 10583 10584 10584 10585 10585 10585 10585 10586 10586 10587 10588 10589 10590 10592 10593 10595 10597 10599 10601 10603 10605 10607 10608 10610 10613 10615 10617 10619 10620 10621 10621 10622 10623 10624 10626 10627
10567 10570 10570 10571 10573 10574 10573 10572 10572 10573 10574 10574 10574 10575 10575 10576 10576 10577 10577 10577 10578 10578 10578 10579 10579 10579 10579 10579 10580 10580 10580 10581 10581 10581 10582 10582 10583 10584 10585 10586 10587 10589 10590 10592 10594 10596 10598 10600 10602 10603 10605 10607 10610 10612 10614 10615 10615 10615 10616 10617 10619 10621 10623
10562 10563 10563 10564 10567 10568 10567 10566 10566 10567 10567 10568 10568 10569 10569 10570 10570 10571 10572 10572 10573 10573 10573 10574 10574 10575 10575 10575 10575 10575 10576 10576 10577 10577 10577 10578 10579 10580 10581 10582 10583 10584 10585 10587 10589 10591 10593 10595 10596 10598 10599 10601 10604 10606 10608 10609 10610 10610 10611 10612 10613 10615 10618
10557 10557 10557 10558 10559 10561 10562 10561 10560 10561 10561 10562 10563 10563 10564 10564 10565 10566 10567 10567 10568 10568 10568 10569 10569 10570 10570 10570 10570 10571 10571 10572 10572 10573 10573 10573 10574 10575 10576 10577 10579 10580 10581 10582 10584 10585 10587 10589 10591 10592 10594 10596 10598 10600 10602 10604 10604 10605 10606 10608 10608 10610 10612
10553 10552 10552 10552 10553 10555 10556 10556 10556 10555 10555 10556 10558 10559 10559 10559 10560 10560 10561 10563 10563 10564 10564 10564 10565 10565 10565 10565 10566 10566 10566 10567 10567 10568 10569 10569 10570 10571 10572 10573 10574 10575 10576 10578 10579 10580 10582 10583 10585 10586 10588 10590 10592 10594 10596 10598 10599 10600 10601 10602 10603 10604 10606
10548 10548 10547 10547 10548 10549 10551 10552 10551 10550 10550 10551 10552 10553 10554 10554 10555 10555 10556 10558 10558 10559 10560 10560 10560 10560 10560 10560 10561 10561 10561 10562 10562 10563 10564 10565 10566 10567 10568 10568 10569 10570 10571 10572 10574 10575 10576 10577 10579 10580 10582 10583 10585 10587 10590 10592 10593 10594 10595 10597 10598 10599 10600
10542 10543 10542 10541 10542 10544 10544 10545 10545 10544 10544 10545 10546 10547 10548 10549 10550 10550 10551 10552 10553 10553 10553 10554 10554 10554 10554 10555 10555 10556 10556 10557 10557 10558 10559 10560 10561 10562 10563 10564 10565 10565 10566 10567 10568 10569 10571 10572 10573 10574 10576 10577 10579 10580 10583 10585 10587 10588 10589 10590 10592 10593 10594
10537 10538 10537 10537 10538 10539 10537 10536 10536 10537 10537 10538 10539 10539 10541 10542 10543 10543 10544 10545 10546 10547 10547 10547 10547 10548 10548 10548 10548 10549 10549 10550 10551 10552 10553 10555 10556 10557 10558 10558 10559 10560 10561 10562 10563 10564 10565 10566 10568 10569 10570 10571 10572 10573 10575 10577 10579 10581 10582 10584 10585 10586 10588
10531 10533 10532 10533 10535 10535 10531 10528 10528 10529 10529 10531 10532 10532 10532 10533 10534 10535 10536 10537 10538 10539 10540 10540 10540 10540 10540 10541 10541 10542 10543 10544 10545 10546 10548 10549 10550 10551 10552 10552 10553 10554 10556 10557 10558 10559 10560 10561 10562 10563 10564 10565 10566 10567 10568 10569 10571 10573 10575 10577 10578 10579 10580
10525 10527 10527 10528 10529 10528 10523 10520 10521 10522 10521 10522 10524 10525 10525 10525 10526 10527 10528 10528 10529 10530 10531 10531 10532 10532 10533 10533 10534 10536 10537 10537 10539 10540 10541 10543 10544 10545 10545 10546 10547 10548 10549 10551 10552 10553 10554 10555 10556 10557 10557 10558 10559 10560 10561 10562 10564 10565 10567 10569 10570 10572 10573
10519 10521 10523 10524 10523 10520 10515 10513 10514 10515 10514 10513 10514 10515 10517 10518 10518 10519 10519 10519 10520 10521 10521 10523 10524 10524 10525 10526 10528 10529 10530 10531 10532 10533 10535 10536 10537 10538 10539 10540 10541 10542 10543 10544 10545 10547 10548 10549 10550 10551 10551 10552 10552 10553 10554 10555 10556 10558 10560 10561 10563 10564 10565
10514 10517 10518 10518 10515 10512 10509 10507 10507 10507 10506 10506 10506 10506 10508 10510 10511 10511 10511 10511 10511 10512 10512 10514 10515 10516 10517 10518 10520 10521 10523 10524 10525 10527 10529 10529 10530 10532 10533 10534 10535 10536 10537 10538 10539 10540 10541 10542 10543 10544 10544 10545 10546 10546 10547 10548 10549 10550 10552 10554 10555 10556 10557
10510 10512 10511 10508 10507 10506 10503 10501 10499 10498 10499 10500 10498 10497 10498 10499 10501 10502 10502 10503 10503 10503 10504 10506 10507 10509 10510 10511 10512 10514 10515 10517 10518 10520 10522 10522 10523 10525 10526 10527 10527 10529 10530 10531 10531 10532 10532 10534 10535 10536 10536 10537 10538 10539 10540 10541 10542 10543 10544 10546 10548 10549 10550
10503 10504 10503 10501 10501 10500 10497 10494 10491 10491 10494 10494 10490 10489 10489 10489 10492 10494 10495 10495 10496 10496 10497 10498 10500 10501 10503 10504 10505 10506 10507 10509 10511 10512 10514 10515 10516 10517 10519 10519 10520 10520 10521 10522 10522 10523 10524 10526 10527 10527 10528 10529 10530 10531 10532 10533 10534 10535 10536 10538 10540 10541 10543
10492 10494 10495 10494 10494 10493 10490 10488 10486 10486 10489 10487 10483 10483 10483 10482 10484 10488 10489 10490 10490 10491 10491 10492 10493 10494 10495 10496 10497 10498 10500 10502 10504 10505 10506 10507 10507 10508 10510 10510 10511 10511 10511 10512 10513 10514 10516 10518 10518 10518 10519 10521 10521 10522 10523 10524 10526 10527 10528 10529 10531 10532 10534
10485 10485 10485 10484 10483 10484 10483 10481 10480 10480 10481 10481 10480 10481 10480 10478 10479 10481 10484 10485 10484 10484 10484 10483 10484 10486 10487 10487 10489 10490 10492 10494 10496 10498 10499 10499 10498 10499 10500 10500 10500 10500 10501 10502 10504 10505 10507 10508 10508 10508 10510 10511 10512 10513 10515 10516 10518 10519 10520 10520 10522 10523 10524
10480 10477 10477 10475 10473 10476 10477 10475 10474 10474 10475 10476 10478 10479 10478 10476 10475 10475 10477 10478 10477 10477 10476 10474 10475 10476 10477 10477 10479 10481 10482 10484 10487 10489 10490 10490 10489 10489 10489 10489 10489 10490 10491 10492 10495 10496 10497 10497 10497 10498 10500 10501 10502 10503 10505 10507 10509 10510 10511 10511 10512 10513 10514
10472 10470 10470 10469 10466 10468 10470 10470 10470 10470 10471 10471 10473 10475 10475 10473 10472 10471 10471 10470 10469 10469 10468 10466 10466 10466 10466 10468 10469 10471 10472 10474 10476 10478 10479 10480 10481 10480 10478 10477 10478 10479 10480 10483 10485 10485 10485 10486 10486 10488 10490 10491 10491 10493 10495 10497 10499 10501 10502 10502 10502 10503 10504
10462 10461 10462 10462 10461 10461 10462 10463 10464 10465 10465 10465 10466 10468 10468 10468 10466 10466 10465 10463 10462 10461 10460 10459 10458 10458 10459 10459 10460 10462 10463 10463 10465 10466 10468 10471 10471 10469 10467 10467 10469 10469 10470 10473 10476 10475 10475 10476 10477 10478 10479 10480 10480 10482 10484 10487 10488 10490 10492 10492 10492 10492 10494
10452 10452 10453 10454 10454 10455 10455 10455 10456 10457 10458 10459 10459 10459 10459 10459 10458 10457 10457 10455 10453 10452 10451 10451 10451 10452 10452 10452 10452 10453 10453 10453 10454 10456 10459 10460 10459 10457 10458 10460 10461 10461 10461 10464 10467 10465 10466 10467 10467 10467 10469 10470 10471 10472 10473 10475 10477 10479 10481 10481 10481 10481 10482
10443 10443 10443 10444 10445 10446 10447 10448 10448 10449 10450 10451 10451 10451 10451 10450 10449 10448 10447 10446 10444 10443 10443 10443 10445 10445 10445 10444 10444 10445 10445 10445 10445 10447 10449 10450 10449 10447 10446 10448 10450 10451 10452 10455 10456 10455 10456 10456 10456 10457 10459 10461 10461 10462 10462 10463 10465 10468 10469 10469 10470 10470 10470
10435 10434 10434 10434 10436 10437 10438 10439 10440 10442 10442 10442 10442 10442 10441 10441 10440 10439 10437 10435 10435 10434 10434 10435 10436 10437 10437 10437 10437 10437 10437 10437 10437 10437 10438 10439 10438 10436 10434 10435 10438 10439 10440 10444 10447 10446 10446 10445 10445 10447 10449 10450 10450 10451 10452 10453 10455 10457 10457 10457 10458 10459 10459
10427 10426 10426 10426 10427 10428 10429 10431 10432 10433 10433 10433 10433 10432 10432 10431 10430 10429 10427 10425 10425 10425 10425 10426 10427 10427 10427 10427 10428 10429 10429 10428 10428 10428 10429 10428 10427 10426 10425 10425 10427 10427 10428 10433 10435 10435 10434 10433 10435 10437 10438 10439 10440 10441 10441 10443 10444 10445 10446 10446 10447 10448 10448
10417 10418 10418 10419 10420 10421 10421 10423 10424 10424 10424 10423 10423 10423 10423 10422 10420 10419 10418 10416 10415 10415 10414 10415 10416 10417 10416 10415 10416 10417 10418 10418 10418 10418 10419 10419 10418 10417 10417 10416 10416 10416 10418 10421 10423 10423 10422 10422 10424 10427 10428 10428 10429 10429 10429 10430 10431 10432 10434 10435 10436 10436 10438
10406 10408 10408 10409 10410 10411 10412 10413 10414 10414 10414 10414 10414 10414 10413 10411 10410 10409 10408 10407 10407 10406 10404 10404 10405 10405 10405 10404 10404 10404 10406 10407 10407 10407 10408 10409 10408 10408 10408 10408 10407 10407 10408 10409 10410 10410 10411 10412 10413 10416 10416 10417 10417 10417 10416 10417 10417 10418 10420 10422 10423 10424 10425
10395 10396 10397 10397 10398 10399 10399 10400 10401 10402 10402 10403 10404 10403 10402 10400 10399 10398 10397 10396 10396 10396 10395 10394 10394 10393 10392 10392 10392 10392 10393 10394 10395 10396 10396 10397 10397 10397 10397 10398 10398 10397 10397 10397 10398 10399 10400 10401 10403 10404 10404 10405 10405 10404 10403 10403 10404 10405 10406 10408 10409 10411 10413
10384 10384 10385 10385 10386 10387 10387 10387 10388 10389 10390 10391 10392 10391 10390 10389 10388 10386 10385 10384 10384 10384 10383 10383 10382 10381 10381 10380 10380 10381 10381 10381 10383 10384 10385 10385 10386 10386 10386 10386 10386 10386 10386 10385 10385 10387 10389 10390 10391 10392 10392 10392 10392 10391 10390 10391 10391 10392 10393 10394 10396 10398 10399
10373 10373 10372 10372 10372 10373 10373 10373 10374 10374 10376 10378 10378 10378 10377 10377 10376 10375 10374 10373 10372 10371 10371 10371 10371 10370 10369 10369 10369 10368 10368 10369 10370 10372 10373 10374 10374 10374 10374 10374 10374 10374 10374 10374 10375 10376 10377 10377 10377 10378 10378 10378 10378 10378 10379 10378 10378 10379 10380 10382 10383 10384 10385
10362 10361 10360 10360 10359 10359 10359 10358 10358 10358 10360 10362 10364 10365 10364 10364 10363 10362 10362 10361 10361 10360 10360 10360 10359 10358 10358 10357 10357 10356 10356 10356 10357 10359 10361 10362 10362 10362 10363 10363 10363 10362 10362 10363 10364 10364 10364 10363 10362 10363 10363 10364 10365 10366 10366 10365 10365 10367 10369 10370 10371 10371 10371
10350 10350 10349 10349 10348 10347 10346 10346 10346 10345 10346 10347 10349 10350 10350 10350 10349 10349 10350 10350 10350 10350 10350 10349 10348 10347 10346 10345 10344 10344 10344 10344 10345 10347 10349 10350 10351 10351 10352 10352 10352 10351 10351 10351 10351 10351 10349 10348 10349 10350 10350 10351 10351 10351 10352 10353 10354 10356 10357 10357 10358 10359 10359
10336 10337 10337 10337 10336 10334 10335 10336 10337 10337 10337 10337 10335 10333 10334 10335 10337 10337 10338 10338 10339 10339 10339 10339 10337 10335 10334 10334 10333 10332 10332 10333 10334 10335 10337 10339 10340 10341 10341 10341 10341 10340 10340 10340 10339 10338 10337 10336 10337 10338 10339 10339 10339 10338 10339 10341 10342 10343 10345 10345 10345 10346 10346